User: anonymous   Login
Location: Caltech
(34.1382°N, 118.1253°W)
Time: 09:30:57
(UTC-07:00)
Language:

SEDSat Delta rocket - Orbit

View from above orbital plane
View from above orbital plane
View from above satellite
View from above satellite

Ground track
Ground track

The orbit data is extracted from the following two-line orbital elements,

1 25510U 98061C   15150.42371078  .00000553  00000-0  85453-4 0  9993
2 25510 031.4356 113.2338 0330432 283.3283 229.3334 14.36574739869538
Epoch (UTC): 30 May 2015 10:10:08
Eccentricity: 0.0330432
inclination: 31.4356°
perigee height: 533 km
apogee height: 1006 km
right ascension of ascending node: 113.2338°
argument of perigee: 283.3283°
revolutions per day: 14.36574739
mean anomaly at epoch: 229.3334°
orbit number at epoch: 86953

The dashed part of the orbit path shows where the satellite is in the earth's shadow,  

DLR